When you browse on this site, cookies collect data to enhance your experience and personalize the content and advertising you see.
Visit our Privacy Policy to learn more. By continuing to use the site, you agree to this use of cookies and data.

Stündliche Wetter Mosquera

Heute, 4 August, Dienstag

Zeit Temperatur Niederschläge Wind Luftdruck Luftfeuchtigkeit
00:00 +12°C° 0.1 mm 1 m/S 563 mmHg 83%
01:00 +12°C° 0.1 mm 1 m/S 562 mmHg 84%
02:00 +12°C° 0.1 mm 1 m/S 562 mmHg 84%
03:00 +12°C° 0.1 mm 1 m/S 562 mmHg 85%
04:00 +12°C° 0.1 mm 1 m/S 562 mmHg 85%
05:00 +12°C° 0 mm 1 m/S 562 mmHg 85%
06:00 +12°C° 0 mm 1 m/S 562 mmHg 84%
07:00 +12°C° 0 mm 2 m/S 562 mmHg 83%
08:00 +14°C° 0 mm 2 m/S 563 mmHg 76%
09:00 +16°C° 0 mm 2 m/S 564 mmHg 68%
10:00 +18°C° 0 mm 2 m/S 566 mmHg 60%
11:00 +18°C° 0.2 mm 2 m/S 565 mmHg 60%
12:00 +19°C° 0.2 mm 2 m/S 565 mmHg 59%
13:00 +19°C° 0.2 mm 2 m/S 564 mmHg 58%
14:00 +18°C° 0.3 mm 2 m/S 564 mmHg 62%
15:00 +18°C° 0.3 mm 2 m/S 563 mmHg 67%
16:00 +17°C° 0.3 mm 2 m/S 562 mmHg 71%
17:00 +16°C° 0.4 mm 2 m/S 562 mmHg 76%
18:00 +14°C° 0.4 mm 1 m/S 561 mmHg 81%
19:00 +13°C° 0.4 mm 1 m/S 561 mmHg 86%
20:00 +13°C° 0 mm 1 m/S 561 mmHg 85%
21:00 +12°C° 0 mm 2 m/S 562 mmHg 85%
22:00 +12°C° 0 mm 2 m/S 562 mmHg 84%
23:00 +12°C° 0 mm 2 m/S 562 mmHg 84%

Morgen, 5 August, Mittwoch

Zeit Temperatur Niederschläge Wind Luftdruck Luftfeuchtigkeit
00:00 +12°C° 0 mm 1 m/S 562 mmHg 84%
01:00 +12°C° 0 mm 1 m/S 562 mmHg 84%
02:00 +12°C° 0 mm 1 m/S 562 mmHg 84%
03:00 +12°C° 0 mm 1 m/S 561 mmHg 83%
04:00 +12°C° 0 mm 1 m/S 561 mmHg 83%
05:00 +12°C° 0 mm 1 m/S 561 mmHg 82%
06:00 +12°C° 0 mm 1 m/S 562 mmHg 81%
07:00 +13°C° 0 mm 1 m/S 562 mmHg 80%
08:00 +14°C° 0 mm 1 m/S 563 mmHg 74%
09:00 +16°C° 0 mm 1 m/S 564 mmHg 68%
10:00 +18°C° 0 mm 1 m/S 565 mmHg 63%
11:00 +18°C° 0.3 mm 1 m/S 564 mmHg 65%
12:00 +17°C° 0.3 mm 2 m/S 564 mmHg 67%
13:00 +17°C° 0.3 mm 2 m/S 563 mmHg 69%
14:00 +16°C° 0.3 mm 2 m/S 562 mmHg 72%
15:00 +16°C° 0.3 mm 1 m/S 562 mmHg 75%
16:00 +15°C° 0.3 mm 1 m/S 561 mmHg 77%
17:00 +14°C° 0.1 mm 1 m/S 561 mmHg 79%
18:00 +14°C° 0.1 mm 1 m/S 561 mmHg 81%
19:00 +13°C° 0.1 mm 1 m/S 561 mmHg 83%
20:00 +13°C° 0 mm 1 m/S 561 mmHg 82%
21:00 +13°C° 0 mm 1 m/S 562 mmHg 81%
22:00 +13°C° 0 mm 1 m/S 562 mmHg 80%
23:00 +12°C° 0 mm 1 m/S 562 mmHg 81%

übermorgen, 6 August, Donnerstag

Zeit Temperatur Niederschläge Wind Luftdruck Luftfeuchtigkeit
00:00 +12°C° 0 mm 1 m/S 561 mmHg 82%
01:00 +11°C° 0 mm 1 m/S 561 mmHg 83%
02:00 +11°C° 0 mm 1 m/S 561 mmHg 83%
03:00 +11°C° 0 mm 1 m/S 561 mmHg 83%
04:00 +12°C° 0 mm 1 m/S 560 mmHg 82%
05:00 +12°C° 0 mm 1 m/S 561 mmHg 82%
06:00 +12°C° 0 mm 1 m/S 561 mmHg 82%
07:00 +12°C° 0 mm 1 m/S 562 mmHg 82%
08:00 +13°C° 0 mm 1 m/S 562 mmHg 79%
09:00 +14°C° 0 mm 1 m/S 563 mmHg 76%
10:00 +15°C° 0 mm 1 m/S 564 mmHg 72%
11:00 +16°C° 0.1 mm 1 m/S 563 mmHg 71%
12:00 +16°C° 0.1 mm 1 m/S 563 mmHg 70%
13:00 +16°C° 0.1 mm 1 m/S 562 mmHg 68%
14:00 +18°C° 0.3 mm 1 m/S 562 mmHg 68%
15:00 +18°C° 0.3 mm 1 m/S 562 mmHg 68%
16:00 +18°C° 0.3 mm 1 m/S 561 mmHg 68%
17:00 +15°C° 0.2 mm 1 m/S 561 mmHg 75%
18:00 +14°C° 0.2 mm 1 m/S 561 mmHg 81%
19:00 +12°C° 0.2 mm 1 m/S 560 mmHg 88%
20:00 +13°C° 0.1 mm 1 m/S 561 mmHg 86%
21:00 +13°C° 0.1 mm 1 m/S 562 mmHg 85%
22:00 +13°C° 0.1 mm 1 m/S 562 mmHg 83%
23:00 +13°C° 0 mm 1 m/S 562 mmHg 84%

7 August, Freitag

Zeit Temperatur Niederschläge Wind Luftdruck Luftfeuchtigkeit
00:00 +12°C° 0 mm 1 m/S 562 mmHg 84%
01:00 +12°C° 0 mm 1 m/S 561 mmHg 85%
02:00 +12°C° 0 mm 1 m/S 561 mmHg 85%
03:00 +11°C° 0 mm 1 m/S 561 mmHg 86%
04:00 +11°C° 0 mm 1 m/S 560 mmHg 86%
05:00 +11°C° 0 mm 1 m/S 561 mmHg 85%
06:00 +12°C° 0 mm 1 m/S 561 mmHg 84%
07:00 +12°C° 0 mm 1 m/S 562 mmHg 83%
08:00 +13°C° 0 mm 1 m/S 563 mmHg 79%
09:00 +15°C° 0 mm 1 m/S 563 mmHg 75%
10:00 +16°C° 0 mm 1 m/S 564 mmHg 71%
11:00 +16°C° 0.2 mm 1 m/S 564 mmHg 72%
12:00 +16°C° 0.2 mm 1 m/S 563 mmHg 73%
13:00 +16°C° 0.2 mm 1 m/S 563 mmHg 74%
14:00 +15°C° 0.2 mm 1 m/S 562 mmHg 75%
15:00 +15°C° 0.2 mm 1 m/S 561 mmHg 77%
16:00 +14°C° 0.2 mm 1 m/S 561 mmHg 79%
17:00 +14°C° 0 mm 1 m/S 561 mmHg 81%
18:00 +13°C° 0 mm 1 m/S 561 mmHg 83%
19:00 +12°C° 0 mm 1 m/S 561 mmHg 85%
20:00 +12°C° 0 mm 1 m/S 561 mmHg 84%
21:00 +12°C° 0 mm 2 m/S 562 mmHg 83%
22:00 +12°C° 0 mm 2 m/S 562 mmHg 82%
23:00 +12°C° 0 mm 2 m/S 562 mmHg 83%

8 August, Samstag

Zeit Temperatur Niederschläge Wind Luftdruck Luftfeuchtigkeit
00:00 +10°C° 0 mm 2 m/S 562 mmHg 83%
01:00 +11°C° 0 mm 1 m/S 561 mmHg 83%
02:00 +11°C° 0 mm 1 m/S 561 mmHg 83%
03:00 +11°C° 0 mm 1 m/S 561 mmHg 83%
04:00 +11°C° 0 mm 1 m/S 561 mmHg 83%
05:00 +11°C° 0.1 mm 1 m/S 561 mmHg 83%
06:00 +12°C° 0.1 mm 1 m/S 562 mmHg 83%
07:00 +12°C° 0.1 mm 1 m/S 563 mmHg 83%
08:00 +13°C° 0.1 mm 1 m/S 563 mmHg 80%
09:00 +14°C° 0.1 mm 1 m/S 564 mmHg 77%
10:00 +15°C° 0.1 mm 1 m/S 565 mmHg 74%
11:00 +16°C° 0.2 mm 1 m/S 564 mmHg 72%
12:00 +16°C° 0.2 mm 1 m/S 564 mmHg 71%
13:00 +17°C° 0.2 mm 2 m/S 563 mmHg 69%
14:00 +16°C° 0.2 mm 2 m/S 563 mmHg 70%
15:00 +16°C° 0.2 mm 2 m/S 562 mmHg 70%
16:00 +16°C° 0.2 mm 2 m/S 562 mmHg 71%
17:00 +15°C° 0.1 mm 2 m/S 561 mmHg 76%
18:00 +13°C° 0.1 mm 2 m/S 561 mmHg 80%
19:00 +12°C° 0.1 mm 2 m/S 561 mmHg 85%
20:00 +12°C° 0 mm 2 m/S 561 mmHg 85%
21:00 +10°C° 0 mm 2 m/S 562 mmHg 86%
22:00 +10°C° 0 mm 2 m/S 562 mmHg 86%
23:00 +10°C° 0 mm 2 m/S 562 mmHg 86%

9 August, Sonntag

Zeit Temperatur Niederschläge Wind Luftdruck Luftfeuchtigkeit
00:00 +10°C° 0 mm 2 m/S 561 mmHg 86%
01:00 +10°C° 0 mm 2 m/S 561 mmHg 86%
02:00 +10°C° 0.1 mm 2 m/S 561 mmHg 85%
03:00 +10°C° 0.1 mm 2 m/S 561 mmHg 84%
04:00 +12°C° 0.1 mm 1 m/S 561 mmHg 84%
05:00 +12°C° 0.1 mm 1 m/S 561 mmHg 84%
06:00 +12°C° 0.1 mm 1 m/S 562 mmHg 84%
07:00 +12°C° 0.1 mm 1 m/S 562 mmHg 84%
08:00 +14°C° 0 mm 1 m/S 563 mmHg 79%
09:00 +15°C° 0 mm 1 m/S 564 mmHg 74%
10:00 +16°C° 0 mm 1 m/S 565 mmHg 68%
11:00 +18°C° 0.1 mm 1 m/S 564 mmHg 67%
12:00 +17°C° 0.1 mm 2 m/S 564 mmHg 66%
13:00 +18°C° 0.1 mm 2 m/S 563 mmHg 65%
14:00 +18°C° 0.1 mm 2 m/S 563 mmHg 65%
15:00 +18°C° 0.1 mm 2 m/S 562 mmHg 65%
16:00 +18°C° 0.1 mm 2 m/S 562 mmHg 64%
17:00 +16°C° 0.1 mm 2 m/S 561 mmHg 70%
18:00 +14°C° 0.1 mm 2 m/S 561 mmHg 76%
19:00 +13°C° 0.1 mm 2 m/S 561 mmHg 82%
20:00 +12°C° 0 mm 2 m/S 561 mmHg 83%
21:00 +12°C° 0 mm 2 m/S 561 mmHg 83%
22:00 +12°C° 0 mm 2 m/S 561 mmHg 84%
23:00 +10°C° 0 mm 2 m/S 561 mmHg 84%
Mehr zeigen